#timestamp,LO_Frequency,Hit,StdDev 
1591977615.9,286046999.7,N
1591977635.7,286047001.7,N
1591977655.5,286047002.0,N
1591977675.4,286047001.6,N
1591977695.2,286047002.2,N
1591977715.1,286047002.6,N
1591977716.0,286047002.6,N
1591977735.8,286047001.6,N
1591977755.6,286047000.1,N
1591977775.5,286047001.9,N
1591977795.3,286047000.5,N
1591977815.2,286046999.7,N
1591977835.9,286047001.2,N
1591977855.7,286046998.1,N
1591977875.6,286047000.9,N
1591977895.4,286047001.1,N
1591977915.2,286047000.8,N
1591977935.1,286047000.7,N
1591977936.0,286047000.7,N
1591977955.8,286047000.9,N
1591977975.7,286046999.8,N
1591977995.5,286047000.4,N
1591978015.3,286047000.2,N
1591978035.2,286047002.3,N
1591978055.0,286047001.3,N
1591978055.9,286047001.3,N
1591978075.8,286047002.1,N
1591978095.6,286047001.9,N
1591978115.4,286047004.4,Y
1591978135.3,286047002.2,P
1591978155.1,286047002.5,P
1591978175.9,286047002.1,P
1591978195.7,286047002.6,Y
1591978215.5,286046999.2,P
1591978235.4,286046999.0,N
1591978255.2,286046998.6,N
1591978275.0,286046998.1,N
1591978275.9,286046998.1,N
1591978295.8,286047000.8,N
1591978315.6,286047000.7,N
1591978335.5,286047002.4,N
1591978355.3,286047002.8,N
1591978375.1,286047000.1,N
1591978395.9,286047000.8,N
1591978415.7,286047002.6,N
1591978435.6,286046998.2,N
1591978455.4,286046998.5,N
1591978475.2,286047001.1,N
1591978495.1,286046998.2,N
1591978496.0,286046998.2,N
1591978515.8,286046998.5,N
1591978535.7,286047000.9,N
1591978555.5,286047000.6,N
1591978575.3,286047000.2,N
1591978595.2,286047001.0,N
1591978615.9,286047001.2,N
1591978635.7,286047000.9,N
1591978655.6,286047000.4,N
1591978675.4,286047000.7,N
1591978695.3,286046999.2,N
1591978715.1,286046997.0,N
1591978716.0,286046997.0,N
1591978735.8,286047000.3,N
1591978755.7,286047000.6,N
1591978775.5,286046998.2,N
1591978795.3,286046999.3,N
1591978815.2,286046998.5,N
1591978835.0,286047001.0,N
1591978835.9,286047001.0,N
1591978855.8,286047001.1,N
1591978875.6,286047000.9,N
1591978895.4,286047000.3,N
1591978915.3,286047002.6,N
1591978935.1,286047001.9,N
1591978955.9,286047001.8,N
1591978975.7,286047000.2,N
1591978995.5,286047000.2,N
1591979015.4,286047000.2,N
1591979035.2,286047002.5,N
1591979055.0,286047002.5,N
1591979055.9,286047002.5,N
1591979075.8,286046999.8,N
1591979095.6,286047000.0,N
1591979115.5,286047000.0,N
1591979135.3,286047000.7,N
1591979155.1,286047000.2,N
1591979175.9,286047000.2,N
1591979195.7,286047000.6,N
1591979215.6,286047000.2,N
1591979235.4,286047000.1,N
1591979255.2,286047000.1,N
1591979275.1,286047002.4,N
1591979276.0,286047002.4,N
1591979295.8,286047002.6,N
1591979315.6,286047000.0,N
1591979335.5,286046999.7,N
1591979355.3,286046998.9,N
1591979375.2,286046998.4,N
1591979395.9,286047000.7,N
1591979415.7,286047000.4,N
1591979435.6,286047000.1,N
1591979455.4,286047002.8,N
1591979475.2,286047000.4,N
1591979495.1,286047002.4,N
1591979496.0,286047002.4,N
1591979515.8,286047000.9,N
1591979535.7,286046999.8,N
1591979555.5,286047000.6,N
1591979575.3,286047001.2,N
1591979595.2,286046996.5,Y
1591979615.0,286046997.8,P
1591979615.9,286046997.8,N
1591979635.8,286046996.7,N
1591979655.6,286046996.9,N
1591979675.4,286046996.5,N
1591979695.3,286046999.1,N
1591979745.1,286046996.8,E
1591979755.1,286046999.3,N
1591979756.0,286046999.3,P
1591979775.8,286047002.6,P
1591979795.6,286046999.8,N
1591979815.5,286046999.8,N
1591979835.3,286047000.1,N
1591979855.2,286047002.5,N
1591979875.9,286046999.8,N
1591979895.7,286046999.8,N
1591979915.6,286047002.2,N
1591979935.4,286047002.0,N
1591979955.2,286047001.3,N
1591979975.1,286047001.3,N
1591979976.0,286047001.3,N
1591979995.8,286047001.5,N
1591980015.7,286047001.4,N
1591980035.5,286047003.1,N
1591980055.3,286047003.5,N
1591980075.2,286047004.4,Y
1591980095.0,286047006.0,P
1591980095.9,286047006.0,N
1591980115.8,286047000.4,N
1591980135.6,286047000.0,N
1591980155.4,286046999.8,N
1591980175.3,286047000.1,N
1591980195.1,286047000.2,N
1591980215.8,286047002.7,N
1591980235.7,286047000.4,N
1591980255.5,286046999.7,N
1591980275.4,286046999.9,N
1591980295.2,286046998.1,N
1591980315.0,286046998.9,N
1591980315.9,286046998.9,N
1591980335.8,286046998.2,N
1591980355.6,286047000.2,N
1591980375.5,286047000.7,N
1591980395.3,286047000.2,N
1591980415.1,286047001.8,N
1591980435.9,286047001.9,N
1591980455.7,286047003.4,N
1591980475.5,286047006.0,N
1591980495.4,286047005.5,N
1591980515.2,286047007.4,Y
1591980535.1,286047003.2,P
1591980536.0,286047003.2,P
1591980555.8,286047005.1,P
1591980575.6,286047006.8,Y
1591980595.5,286047005.2,P
1591980615.3,286047005.8,P
1591980635.2,286047005.3,P
1591980655.9,286047004.7,Y
1591980675.7,286047000.8,P
1591980695.6,286047000.3,N
1591980715.4,286047002.4,N
1591980735.3,286046999.7,N
1591980755.1,286047002.3,N
1591980756.0,286047002.3,N
1591980775.8,286046999.8,N
1591980795.7,286047001.6,N
1591980815.5,286047003.9,N
1591980835.4,286047003.7,N
1591980855.2,286047002.9,N
1591980875.0,286047005.8,Y
1591980875.9,286047005.8,P
1591980895.8,286047001.5,N
1591980915.6,286047002.4,N
1591980935.4,286046999.8,N
1591980955.3,286047001.5,N
1591980975.1,286047004.2,N
1591980995.9,286047004.2,N
1591981015.7,286047004.4,N
1591981035.5,286046999.7,N
1591981055.4,286047000.2,N
1591981075.2,286047000.8,N
1591981095.1,286046998.7,N
1591981096.0,286046998.7,N
1591981115.8,286046995.4,N
1591981135.6,286046995.4,N
1591981155.5,286046999.5,N
1591981175.3,286046995.1,N
1591981195.2,286046995.2,N
